Weather History for KFPR - February, 2013

Change the Weather History Date:

Tuesday, February 19, 2013

  Actual Average (KVRB) Record (KVRB)
Temperature  
Mean Temperature 69 °F 65 °F  
Max Temperature 81 °F 75 °F 87 °F (2012)
Min Temperature 57 °F 55 °F 32 °F (1958)
Degree Days  
Heating Degree Days 0 3  
Month to date heating degree days 71  
Since 1 July heating degree days 358  
Cooling Degree Days 4 3  
Month to date cooling degree days 49  
Year to date cooling degree days 110  
Growing Degree Days 19 (Base 50)    
Moisture  
Dew Point 56 °F    
Average Humidity 66    
Maximum Humidity 97    
Minimum Humidity 41    
Precipitation  
Precipitation 0.01 in 0.08 in 1.43 in (1968)
Month to date precipitation 1.76  
Year to date precipitation 4.26  
Sea Level Pressure  
Sea Level Pressure 30.16 in    
Wind  
Wind Speed 7 mph (SSW)    
Max Wind Speed 13 mph    
Max Gust Speed 21 mph    
Visibility 10 miles    
Events Rain    
T = Trace of Precipitation, MM = Missing Value Source: NWS Daily Summary

Daily Weather History Graph

Daily Weather History Graph

Search for Another Location

Airport or City:

Trip Planner

Search our weather history database for the weather conditions in past years. The results will help you decide how hot, cold, wet, or windy it might be!

Date:

Astronomy

Feb. 19, 2013 Rise Set
Actual Time 6:54 AM EST 6:16 PM EST
Civil Twilight 6:31 AM EST 6:39 PM EST
Nautical Twilight 6:03 AM EST 7:07 PM EST
Astronomical Twilight 5:36 AM EST 7:34 PM EST
Moon 1:02 PM EST (2/19) 2:10 AM EST (2/19)
Length of Visible Light 12h 08m
Length of Day
11h 21m
Waxing Gibbous, 67% of the Moon is Illuminated
Feb 19
Waxing Gibbous
Feb 25
Full
Mar 4
Last Quarter
Mar 11
New
Mar 19
First Quarter

Hourly Weather History & Observations

Time (EST) Temp. Heat Index Dew Point Humidity Pressure Visibility Wind Dir Wind Speed Gust Speed Precip Events Conditions
12:53 AM 61.0 °F - 51.1 °F 70% 30.22 in 10.0 mi ESE 5.8 mph - N/A   Partly Cloudy
1:53 AM 63.0 °F - 51.1 °F 65% 30.20 in 10.0 mi SE 8.1 mph - N/A   Scattered Clouds
2:53 AM 62.1 °F - 51.1 °F 67% 30.18 in 10.0 mi SE 8.1 mph - N/A   Clear
3:53 AM 66.0 °F - 54.0 °F 65% 30.18 in 10.0 mi SE 10.4 mph - N/A   Overcast
4:53 AM 66.0 °F - 55.9 °F 70% 30.17 in 10.0 mi SE 11.5 mph - N/A   Mostly Cloudy
5:53 AM 61.0 °F - 57.0 °F 87% 30.19 in 9.0 mi SW 3.5 mph - 0.01 in Rain Light Rain
6:28 AM 62.6 °F - 57.2 °F 82% 30.19 in 10.0 mi SSW 3.5 mph - 0.00 in   Overcast
6:53 AM 61.0 °F - 57.9 °F 90% 30.19 in 10.0 mi SW 3.5 mph - 0.00 in   Mostly Cloudy
7:53 AM 57.9 °F - 57.0 °F 97% 30.19 in 7.0 mi Calm Calm - N/A   Partly Cloudy
8:53 AM 68.0 °F - 57.9 °F 70% 30.20 in 10.0 mi SSW 5.8 mph - N/A   Partly Cloudy
9:53 AM 72.0 °F - 57.0 °F 59% 30.20 in 10.0 mi Variable 5.8 mph - N/A   Clear
10:53 AM 75.0 °F - 53.1 °F 46% 30.20 in 10.0 mi SSW 9.2 mph - N/A   Clear
11:53 AM 75.9 °F - 53.1 °F 45% 30.19 in 10.0 mi SSW 10.4 mph - N/A   Mostly Cloudy
1:53 PM 79.0 °F - 54.0 °F 42% 30.13 in 10.0 mi SSW 12.7 mph 18.4 mph N/A   Scattered Clouds
2:53 PM 81.0 °F 80.7 °F 55.0 °F 41% 30.11 in 10.0 mi WSW 11.5 mph 20.7 mph N/A   Scattered Clouds
3:53 PM 78.1 °F - 55.9 °F 46% 30.09 in 10.0 mi SSW 12.7 mph - N/A   Partly Cloudy
4:53 PM 78.1 °F - 55.9 °F 46% 30.08 in 10.0 mi SSW 9.2 mph - N/A   Partly Cloudy
5:53 PM 75.0 °F - 57.0 °F 53% 30.09 in 10.0 mi WSW 3.5 mph - N/A   Partly Cloudy
7:53 PM 66.0 °F - 57.9 °F 75% 30.11 in 10.0 mi Calm Calm - N/A   Mostly Cloudy
8:53 PM 69.1 °F - 60.1 °F 73% 30.12 in 10.0 mi South 3.5 mph - N/A   Overcast
9:53 PM 66.9 °F - 57.9 °F 73% 30.13 in 10.0 mi Calm Calm - N/A   Mostly Cloudy
10:53 PM 66.0 °F - 57.9 °F 75% 30.12 in 10.0 mi SW 3.5 mph - N/A   Mostly Cloudy
11:53 PM 61.0 °F - 55.9 °F 83% 30.11 in 10.0 mi Calm Calm - N/A   Clear